[[{"header":{"parameterUnit":"m.s-1","parameterCategory":1,"la1":30.2991,"la2":30.254,"lo1":-89.0895,"lo2":-89.0444,"dy":0.0017,"dx":0.0017,"nx":28,"ny":28,"refTime":"2025-01-07T03:00:00:Z","depth":0,"parameterNumber":2,"parameterNumberName":"U-component_of_WINDS"},"data":[0,0,0,0,0,0,0,0,0,0,0,0,0,0,0,0,0,0,0,0,0,0,0,0,0,0,0,0,0,0,0,0,0,0,0,0,0,0,0,0,0,0,0,0,0,0,0,0,0,0,0,0,0,0,0,0,0,0,-0.1782,-0.1782,0,-0.1795,-0.1795,-0.1795,-0.1787,-0.1786,-0.1786,-0.1786,-0.1799,-0.18,-0.1801,0,0,0,0,0,0,0,0,0,0,0,0,0,-0.175,-0.175,-0.1782,-0.1782,-0.1782,-0.1795,-0.1795,-0.1795,-0.1787,-0.1786,-0.1786,-0.1785,-0.1799,-0.18,-0.1801,0,0,0,0,0,0,0,0,0,0,0,0,0,-0.1763,-0.175,-0.1782,-0.1779,-0.1779,-0.1795,-0.1795,-0.1795,-0.1787,-0.1786,-0.1786,-0.1785,-0.1799,-0.18,-0.1801,-0.1819,0,0,-0.1804,-0.1805,0,0,0,0,0,0,0,0,-0.1762,-0.1764,-0.178,-0.178,-0.178,-0.1788,-0.1789,-0.1803,-0.1787,-0.1784,-0.1786,-0.1785,-0.1796,-0.1797,-0.1801,-0.182,-0.1821,-0.1804,-0.1805,-0.1805,-0.1806,0,0,0,0,0,0,0,-0.1761,-0.1764,-0.1787,-0.178,-0.178,-0.1778,-0.1779,-0.1791,-0.1793,-0.1784,-0.1784,-0.1785,-0.1796,-0.18,-0.1801,-0.1821,-0.1804,-0.1805,-0.1806,-0.1806,-0.1855,-0.1855,0,0,0,0,0,0,-0.1761,-0.1763,-0.1786,-0.1787,-0.1769,-0.1779,-0.178,-0.1786,-0.1793,-0.1794,-0.1786,-0.1785,-0.1799,-0.18,-0.1802,-0.1824,-0.1805,-0.1807,-0.1807,-0.1854,-0.1855,-0.1856,0,0,0,0,0,0,-0.176,-0.1763,-0.1786,-0.1775,-0.1778,-0.178,-0.1787,-0.1787,-0.1791,-0.1794,-0.1795,-0.179,-0.1798,-0.18,-0.1815,-0.1824,-0.1807,-0.1808,-0.1854,-0.1854,-0.1855,-0.1868,0,0,0,0,0,0,-0.1759,-0.1763,-0.177,-0.1775,-0.1778,-0.1799,-0.1787,-0.1787,-0.1793,-0.1792,-0.1798,-0.1798,-0.1798,-0.1813,-0.1816,-0.1826,-0.1809,-0.1853,-0.1854,-0.1855,-0.1867,-0.187,-0.1872,0,0,0,0,0,-0.1758,-0.1773,-0.177,-0.1773,-0.1787,-0.1799,-0.1801,-0.18,-0.1793,-0.1801,-0.1803,-0.1798,-0.1823,-0.1815,-0.1818,-0.1828,-0.1852,-0.1854,-0.1855,-0.1866,-0.1869,-0.1872,0,0,0,0,0,0,-0.1769,-0.1774,-0.1771,-0.1788,-0.1793,-0.1798,-0.1807,-0.1803,-0.1811,-0.181,-0.1808,-0.181,-0.1825,-0.1828,-0.1819,-0.1846,-0.1836,-0.1838,-0.1844,-0.1847,-0.1849,-0.1849,-0.181,0,0,0,0,0,-0.1773,-0.1783,-0.1786,-0.1801,-0.1804,-0.1805,-0.181,-0.1809,-0.1815,-0.1817,-0.182,-0.1826,-0.1835,-0.1841,-0.1849,-0.1867,-0.1868,-0.1875,-0.1878,-0.1879,-0.1882,-0.1891,-0.1895,-0.186,-0.186,-0.186,0,0,-0.1783,-0.1787,-0.1793,-0.1804,-0.1808,-0.1818,-0.1807,-0.1818,-0.1825,-0.1819,-0.1833,-0.1835,-0.1841,-0.1858,-0.1865,-0.186,-0.1891,-0.1881,-0.1883,-0.1884,-0.1893,-0.1896,-0.1899,-0.1861,-0.1861,-0.1861,0,0,-0.1805,-0.1809,-0.1822,-0.1826,-0.1832,-0.1832,-0.1835,-0.184,-0.1841,-0.1855,-0.185,-0.1859,-0.1874,-0.1879,-0.1883,-0.1906,-0.1902,-0.1909,-0.1921,-0.1931,-0.1934,-0.1936,-0.1945,-0.1948,-0.1911,-0.1911,-0.1911,0,-0.1816,-0.1831,-0.1829,-0.184,-0.1845,-0.1838,-0.1851,-0.1855,-0.1864,-0.1868,-0.1862,-0.1881,-0.1885,-0.1902,-0.1908,-0.1911,-0.1915,-0.1909,-0.1933,-0.1936,-0.1938,-0.1946,-0.1949,-0.1911,-0.1911,-0.1911,-0.1911,0,-0.1844,-0.1854,-0.1864,-0.1872,-0.1878,-0.189,-0.189,-0.1896,-0.1893,-0.1894,-0.1908,-0.1912,-0.1921,-0.1925,-0.1923,-0.1942,-0.1939,-0.1933,-0.1924,-0.1942,-0.195,-0.1953,-0.1913,-0.1912,-0.1912,-0.1912,0,0,-0.1875,-0.1881,-0.1885,-0.1889,-0.1894,-0.1902,-0.1913,-0.1922,-0.1928,-0.1933,-0.1943,-0.1956,-0.195,-0.1955,-0.1953,-0.1962,-0.198,-0.1955,-0.1955,-0.196,-0.2002,-0.2007,-0.201,-0.1977,-0.1977,-0.1978,-0.2001,0,-0.1898,-0.1919,-0.1916,-0.1936,-0.1945,-0.1939,-0.1949,-0.1953,-0.1954,-0.1962,-0.1963,-0.1972,-0.1964,-0.1967,-0.1975,-0.1976,-0.1988,-0.1974,-0.1987,-0.1987,-0.1986,-0.2014,-0.202,-0.2042,-0.2004,-0.2005,-0.2005,0,-0.1928,-0.1935,-0.1955,-0.1959,-0.1963,-0.1972,-0.198,-0.1987,-0.1992,-0.1992,-0.1997,-0.1994,-0.2005,-0.1994,-0.201,-0.2001,-0.2005,-0.2007,-0.2007,-0.201,-0.1998,-0.2018,-0.2049,-0.2052,-0.201,-0.2009,-0.2009,0,-0.195,-0.1964,-0.1978,-0.1981,-0.1986,-0.1992,-0.1994,-0.1998,-0.2004,-0.201,-0.2013,-0.2021,-0.2025,-0.2031,-0.203,-0.2022,-0.2046,-0.2035,-0.2047,-0.2047,-0.2053,-0.2053,-0.2086,-0.2055,-0.2055,-0.2054,-0.2054,0,-0.1977,-0.1989,-0.1987,-0.1996,-0.201,-0.2007,-0.2021,-0.2022,-0.2026,-0.2035,-0.2029,-0.2037,-0.2035,-0.2043,-0.2042,-0.2055,-0.2057,-0.2057,-0.2057,-0.2059,-0.2059,-0.2063,-0.2061,-0.2055,-0.2055,-0.2055,-0.2055,0,-0.2004,-0.2003,-0.2017,-0.202,-0.2021,-0.2032,-0.2034,-0.2042,-0.2042,-0.2053,-0.2056,-0.2056,-0.2065,-0.2064,-0.2074,-0.2073,-0.209,-0.2088,-0.2089,-0.2089,-0.21,-0.21,-0.2138,-0.2143,-0.2107,-0.2108,-0.2108,0,-0.2021,-0.2031,-0.2035,-0.204,-0.2043,-0.2052,-0.2057,-0.2054,-0.2059,-0.2065,-0.2072,-0.2081,-0.2088,-0.2103,-0.2104,-0.2112,-0.211,-0.2122,-0.2111,-0.2112,-0.2111,-0.2111,-0.2112,-0.2125,-0.2126,-0.2126,-0.2126,0,-0.2053,-0.2052,-0.2059,-0.2067,-0.2073,-0.2079,-0.2084,-0.2088,-0.2086,-0.2092,-0.2101,-0.2107,-0.2117,-0.2126,-0.2133,-0.2135,-0.213,-0.213,-0.2133,-0.2135,-0.2136,-0.2136,-0.2096,-0.2129,-0.2129,-0.2129,-0.2128,-0.2128,-0.2077,-0.2085,-0.2089,-0.2097,-0.2101,-0.2105,-0.2113,-0.2114,-0.2121,-0.2129,-0.2127,-0.2137,-0.2141,-0.215,-0.2153,-0.2161,-0.2157,-0.2161,-0.2163,-0.2164,-0.2166,-0.2133,-0.2162,-0.2162,-0.2162,-0.2162,-0.2162,0,-0.2109,-0.2111,-0.2118,-0.2126,-0.2132,-0.2126,-0.2131,-0.2138,-0.2147,-0.2151,-0.2157,-0.2168,-0.2176,-0.2177,-0.2185,-0.2191,-0.2189,-0.2193,-0.2194,-0.2194,-0.2169,-0.2166,-0.2195,-0.2195,-0.2195,-0.2195,-0.2195,-0.2195,-0.2126,-0.214,-0.2139,-0.2155,-0.2156,-0.2167,-0.217,-0.2174,-0.2177,-0.2189,-0.2196,-0.2196,-0.2199,-0.2207,-0.2214,-0.2214,-0.2218,-0.2223,-0.2222,-0.2199,-0.2196,-0.2193,-0.219,-0.2223,-0.2223,-0.2247,-0.2247,-0.2247]},{"header":{"parameterUnit":"m.s-1","parameterCategory":1,"la1":30.2991,"la2":30.254,"lo1":-89.0895,"lo2":-89.0444,"dy":0.0017,"dx":0.0017,"nx":28,"ny":28,"refTime":"2025-01-07T03:00:00:Z","depth":0,"parameterNumber":3,"parameterNumberName":"V-component_of_WINDS"},"data":[0,0,0,0,0,0,0,0,0,0,0,0,0,0,0,0,0,0,0,0,0,0,0,0,0,0,0,0,0,0,0,0,0,0,0,0,0,0,0,0,0,0,0,0,0,0,0,0,0,0,0,0,0,0,0,0,0,0,-4.7936,-4.7937,0,-4.7995,-4.7995,-4.7996,-4.7974,-4.7973,-4.7972,-4.797,-4.8026,-4.8028,-4.8031,0,0,0,0,0,0,0,0,0,0,0,0,0,-4.7802,-4.7804,-4.7936,-4.7937,-4.7938,-4.7995,-4.7995,-4.7996,-4.7975,-4.7973,-4.7971,-4.797,-4.8025,-4.8028,-4.8031,0,0,0,0,0,0,0,0,0,0,0,0,0,-4.786,-4.7805,-4.7936,-4.7934,-4.7934,-4.7994,-4.7995,-4.7996,-4.7975,-4.7973,-4.7971,-4.7969,-4.8024,-4.8028,-4.8032,-4.8096,0,0,-4.8044,-4.8046,0,0,0,0,0,0,0,0,-4.7857,-4.7865,-4.7933,-4.7934,-4.7935,-4.7975,-4.7968,-4.803,-4.7975,-4.7959,-4.797,-4.7968,-4.801,-4.8015,-4.803,-4.8099,-4.8101,-4.8044,-4.8047,-4.8048,-4.805,0,0,0,0,0,0,0,-4.7853,-4.7862,-4.7959,-4.7934,-4.7935,-4.7929,-4.7935,-4.798,-4.7995,-4.7961,-4.7959,-4.7967,-4.801,-4.8026,-4.8031,-4.8102,-4.8044,-4.8048,-4.805,-4.8052,-4.8227,-4.8229,0,0,0,0,0,0,-4.7849,-4.7859,-4.7957,-4.7961,-4.789,-4.7933,-4.7939,-4.7964,-4.7994,-4.7997,-4.7968,-4.7965,-4.8021,-4.8027,-4.8033,-4.8112,-4.8048,-4.8052,-4.8055,-4.8224,-4.8227,-4.8229,0,0,0,0,0,0,-4.7846,-4.7858,-4.7955,-4.791,-4.7922,-4.7937,-4.7965,-4.7966,-4.7983,-4.8,-4.8002,-4.7983,-4.8019,-4.8028,-4.8081,-4.8113,-4.8054,-4.8058,-4.8222,-4.8225,-4.8228,-4.8268,0,0,0,0,0,0,-4.7843,-4.7857,-4.7883,-4.7911,-4.7924,-4.8003,-4.7967,-4.7969,-4.799,-4.7987,-4.8014,-4.8017,-4.8018,-4.8075,-4.8085,-4.8118,-4.8061,-4.8219,-4.8223,-4.8227,-4.8264,-4.8273,-4.828,0,0,0,0,0,-4.7838,-4.789,-4.7884,-4.7896,-4.7957,-4.8005,-4.8013,-4.8015,-4.7993,-4.8018,-4.803,-4.8016,-4.8108,-4.8081,-4.8092,-4.8126,-4.8217,-4.8222,-4.8227,-4.8261,-4.8271,-4.828,0,0,0,0,0,0,-4.7864,-4.7894,-4.7887,-4.7951,-4.7976,-4.8001,-4.8033,-4.8025,-4.8056,-4.8051,-4.8051,-4.8057,-4.8113,-4.8124,-4.8094,-4.819,-4.8159,-4.8166,-4.8181,-4.8191,-4.8199,-4.8195,-4.8064,0,0,0,0,0,-4.7878,-4.7916,-4.7939,-4.7993,-4.8006,-4.8018,-4.8039,-4.8039,-4.8064,-4.8074,-4.8089,-4.8112,-4.8147,-4.8169,-4.8202,-4.8266,-4.8271,-4.8295,-4.8302,-4.8309,-4.8315,-4.8351,-4.8362,-4.8246,-4.8246,-4.8246,0,0,-4.7905,-4.7926,-4.795,-4.7999,-4.8018,-4.8057,-4.8027,-4.8068,-4.8097,-4.8079,-4.8132,-4.8144,-4.817,-4.8229,-4.8256,-4.8241,-4.8349,-4.8315,-4.832,-4.8323,-4.8357,-4.8368,-4.8378,-4.8249,-4.8249,-4.8248,0,0,-4.7976,-4.7995,-4.8043,-4.8064,-4.8094,-4.8102,-4.8113,-4.814,-4.8148,-4.8201,-4.8189,-4.8222,-4.8281,-4.8301,-4.8318,-4.8397,-4.8386,-4.8408,-4.8449,-4.8483,-4.8492,-4.8501,-4.853,-4.854,-4.8414,-4.8414,-4.8414,0,-4.8006,-4.8065,-4.8068,-4.8112,-4.8134,-4.8121,-4.8169,-4.8188,-4.8227,-4.8242,-4.8224,-4.8299,-4.8316,-4.838,-4.84,-4.8414,-4.8427,-4.8405,-4.8491,-4.8499,-4.8507,-4.8535,-4.8545,-4.8417,-4.8416,-4.8416,-4.8416,0,-4.8101,-4.8143,-4.8177,-4.8218,-4.8243,-4.8288,-4.8297,-4.8322,-4.832,-4.8329,-4.8383,-4.8402,-4.8439,-4.8454,-4.8451,-4.8518,-4.8508,-4.8491,-4.8459,-4.8521,-4.8547,-4.8557,-4.842,-4.8419,-4.8419,-4.8418,0,0,-4.819,-4.8232,-4.8245,-4.8264,-4.8297,-4.8328,-4.8372,-4.841,-4.8432,-4.8459,-4.8497,-4.8547,-4.8532,-4.8552,-4.8551,-4.8582,-4.8644,-4.8561,-4.8561,-4.8576,-4.872,-4.8734,-4.8746,-4.8637,-4.8639,-4.864,-4.8718,0,-4.8264,-4.8345,-4.8349,-4.8422,-4.846,-4.8449,-4.8488,-4.8512,-4.8522,-4.8554,-4.8564,-4.8601,-4.8577,-4.859,-4.8619,-4.863,-4.8673,-4.8625,-4.8671,-4.8673,-4.8666,-4.876,-4.8774,-4.8847,-4.8729,-4.873,-4.8731,0,-4.8361,-4.8394,-4.8471,-4.85,-4.8516,-4.8552,-4.8587,-4.8619,-4.8645,-4.865,-4.8674,-4.8669,-4.8713,-4.868,-4.8741,-4.8708,-4.8727,-4.8736,-4.8738,-4.8744,-4.8706,-4.8768,-4.887,-4.8881,-4.8747,-4.8746,-4.8745,0,-4.842,-4.8483,-4.8538,-4.8553,-4.8588,-4.8613,-4.8628,-4.8653,-4.8676,-4.8706,-4.8721,-4.8756,-4.8775,-4.8801,-4.8805,-4.878,-4.8867,-4.8834,-4.8872,-4.8872,-4.8891,-4.889,-4.8999,-4.8902,-4.8902,-4.8902,-4.8901,0,-4.8503,-4.8551,-4.8565,-4.8598,-4.8652,-4.8655,-4.8707,-4.872,-4.8743,-4.8778,-4.8769,-4.8802,-4.8805,-4.8839,-4.8842,-4.8893,-4.8901,-4.8906,-4.8906,-4.8908,-4.8907,-4.8921,-4.8916,-4.8904,-4.8904,-4.8903,-4.8903,0,-4.8577,-4.8588,-4.8648,-4.8676,-4.8685,-4.8723,-4.8747,-4.8778,-4.8787,-4.8832,-4.8843,-4.8857,-4.8896,-4.8903,-4.8948,-4.895,-4.9011,-4.9006,-4.9003,-4.9003,-4.9041,-4.9038,-4.9163,-4.918,-4.9071,-4.9072,-4.9073,0,-4.863,-4.8667,-4.87,-4.8725,-4.8742,-4.878,-4.8804,-4.8809,-4.8834,-4.8868,-4.8895,-4.8934,-4.8966,-4.9029,-4.9042,-4.9077,-4.9073,-4.9114,-4.9078,-4.9078,-4.9074,-4.9073,-4.9077,-4.9121,-4.9122,-4.9123,-4.9124,0,-4.8723,-4.8727,-4.8763,-4.8801,-4.8831,-4.886,-4.8888,-4.8908,-4.8916,-4.8945,-4.8986,-4.901,-4.9058,-4.9097,-4.9132,-4.9145,-4.9136,-4.9136,-4.9146,-4.9148,-4.9146,-4.9149,-4.9023,-4.9133,-4.9132,-4.9131,-4.9131,-4.913,-4.8789,-4.8822,-4.8851,-4.8891,-4.8914,-4.894,-4.8972,-4.8986,-4.9021,-4.9062,-4.9062,-4.9107,-4.9133,-4.9179,-4.9196,-4.923,-4.9217,-4.9232,-4.9236,-4.924,-4.9245,-4.914,-4.9236,-4.9236,-4.9236,-4.9236,-4.9235,0,-4.8882,-4.8901,-4.8938,-4.8979,-4.9011,-4.9001,-4.9032,-4.9058,-4.9099,-4.9125,-4.9157,-4.9204,-4.9242,-4.9258,-4.9295,-4.932,-4.9316,-4.9329,-4.9328,-4.9331,-4.9254,-4.9242,-4.9331,-4.9331,-4.9331,-4.9331,-4.9331,-4.9331,-4.8934,-4.899,-4.8998,-4.9065,-4.9082,-4.9128,-4.9147,-4.9171,-4.9192,-4.9246,-4.9279,-4.929,-4.9311,-4.935,-4.9384,-4.9387,-4.9402,-4.9417,-4.9419,-4.9346,-4.9337,-4.9327,-4.9316,-4.942,-4.942,-4.9493,-4.9494,-4.9494]}]]